MST,Max TemperatureF,Mean TemperatureF,Min TemperatureF,Max Dew PointF,MeanDew PointF,Min DewpointF,Max Humidity, Mean Humidity, Min Humidity, Max Sea Level PressureIn, Mean Sea Level PressureIn, Min Sea Level PressureIn, Max VisibilityMiles, Mean VisibilityMiles, Min VisibilityMiles, Max Wind SpeedMPH, Mean Wind SpeedMPH, Max Gust SpeedMPH,PrecipitationIn, CloudCover, Events, WindDirDegrees
2013-2-1,28,18,8,27,16,-9,93,85,41,30.08,29.98,29.90,10,7,1,22,7,22,0.00,8,,284
2013-2-2,35,24,14,30,22,10,93,81,74,30.21,30.10,30.00,10,10,3,33,10,44,0.05,7,,284
2013-2-3,26,19,12,21,18,10,100,86,79,30.07,29.91,29.83,10,10,3,10,4,,0.00,5,,319
2013-2-4,39,30,21,30,26,19,93,80,65,29.94,29.74,29.64,10,10,9,25,11,31,0.00,5,,245
2013-2-5,35,28,21,28,24,18,93,77,64,29.98,29.88,29.70,10,10,10,18,11,24,0.00,3,,225
2013-2-6,37,32,26,30,27,25,93,83,70,30.03,29.83,29.66,10,9,5,21,8,25,0.00,3,,258
2013-2-7,33,27,21,27,25,19,100,90,75,30.11,30.05,29.98,10,6,0,7,4,,0.00,5,,61
2013-2-8,35,27,19,28,24,16,100,87,70,29.98,29.94,29.91,10,10,10,7,2,,0.00,0,,257
2013-2-9,39,26,12,30,22,10,93,84,65,29.93,29.87,29.80,10,10,7,10,2,,0.00,1,,221
2013-2-10,30,24,19,27,20,14,93,82,69,30.10,29.96,29.85,10,10,5,26,14,32,0.00,8,,317
2013-2-11,33,25,17,21,17,12,86,74,52,30.10,29.97,29.84,10,10,10,22,11,26,0.00,3,,252
2013-2-12,41,31,21,28,23,16,86,71,57,29.94,29.88,29.77,10,10,10,18,13,21,0.00,3,,275
2013-2-13,39,34,30,32,28,21,93,77,64,29.88,29.73,29.62,10,10,9,29,14,36,0.00,5,,278
2013-2-14,30,24,15,25,19,10,86,76,64,30.32,30.21,29.87,10,9,1,30,18,43,0.00,7,,315
2013-2-15,33,22,10,19,13,9,93,74,52,30.39,30.34,30.24,10,10,10,12,6,,0.00,2,,233
2013-2-16,,,,,,,,,,,,,,,,,,,,,,
2013-2-17,,,,,,,,,,,,,,,,,,,,,,
2013-2-18,,,,,,,,,,,,,,,,,,,,,,
2013-2-19,12,9,6,1,-2,-6,72,62,52,30.25,30.16,30.10,10,10,10,17,15,21,0.00,0,,112
2013-2-20,24,15,6,10,3,-2,72,64,50,30.09,30.02,29.96,10,10,10,14,11,17,0.00,0,,132
2013-2-21,28,19,10,21,18,9,92,75,64,30.08,30.03,29.97,10,10,10,10,2,,0.00,5,,129
2013-2-22,42,30,17,27,21,14,93,77,49,29.97,29.85,29.69,10,10,10,13,6,,0.00,2,,187
2013-2-23,44,32,19,30,24,16,93,73,53,29.83,29.67,29.61,10,10,10,14,6,,0.00,4,,229
2013-2-24,37,30,24,28,23,19,86,72,52,30.08,30.02,29.85,10,10,10,18,10,23,0.00,2,,280
2013-2-25,46,34,23,27,22,19,86,70,43,29.99,29.87,29.79,10,10,10,15,9,,0.00,0,,195
2013-2-26,35,30,24,28,25,21,93,79,70,30.17,29.98,29.81,10,10,10,26,7,30,0.00,6,,282
2013-2-27,32,29,26,25,23,21,93,80,69,30.30,30.26,30.17,10,10,5,14,8,17,0.00,8,,7
2013-2-28,41,32,23,27,24,19,93,78,53,30.26,30.22,30.15,10,9,5,12,4,17,0.00,4,,226